Wind_Speed
45 45 46 47 48 49 50 51 52 51 49 50 51 52 51 50 49 49 48 47 48 48 47 47 47 47 46 46 46 45 43 41 40 40 38 37 36 35
45 46 47 48 49 50 51 52 53 52 51 50 50 50 49 48 48 48 47 47 47 47 47 46 46 46 45 45 44 42 40 39 38 37 35 35 33 32
46 46 47 48 50 51 52 53 53 52 51 49 49 48 47 47 47 47 46 46 46 47 45 45 44 45 45 43 41 38 37 36 36 35 34 33 31 31
46 47 48 50 51 52 53 52 52 50 50 48 47 47 46 46 47 46 45 46 46 45 44 44 44 44 43 41 37 36 35 34 33 32 32 31 29 28
47 48 50 51 52 52 52 51 49 49 48 48 47 46 46 46 46 45 46 46 45 44 44 43 42 42 41 38 36 34 34 33 32 32 31 31 29 27
48 49 50 51 51 51 50 48 48 47 47 47 47 46 46 46 45 44 44 43 43 43 43 42 41 40 39 36 35 33 32 32 31 30 28 27 26 25
48 50 50 50 50 49 48 46 47 47 47 46 46 45 45 44 44 43 42 42 42 42 40 40 39 38 36 34 33 32 31 30 30 28 26 25 23 22
48 49 49 48 48 47 46 46 46 46 46 45 45 44 44 44 43 42 42 41 40 39 38 38 37 36 34 32 31 30 29 28 27 25 24 23 21 20
48 48 48 47 47 45 45 45 45 45 44 44 44 43 43 43 43 42 41 41 40 38 38 37 36 35 33 32 29 28 27 26 24 22 21 20 19 19
48 48 46 46 45 45 44 43 43 43 43 44 43 43 43 43 42 41 41 40 39 38 37 35 33 32 32 30 27 26 26 25 22 20 19 19 18 18
46 46 45 45 44 44 43 42 42 42 43 42 43 43 42 41 40 40 39 38 37 35 33 32 30 29 28 27 25 24 23 22 20 19 19 19 19 18
45 44 44 43 42 42 41 41 41 41 41 41 42 42 41 39 38 37 36 35 34 31 30 29 28 27 25 23 22 22 21 20 19 18 18 18 17 16
44 43 43 42 40 40 41 41 40 40 40 40 40 40 38 36 35 34 33 32 31 29 28 27 26 25 24 22 21 20 20 18 17 16 16 16 14 13
43 42 41 40 39 39 40 39 39 38 38 38 37 36 35 34 33 32 31 30 29 28 27 26 24 24 22 21 19 17 17 16 15 15 14 13 12 12
40 40 39 38 37 38 38 38 37 36 36 35 34 33 32 31 30 30 29 28 27 27 27 25 23 22 20 18 17 15 15 15 15 14 13 12 10 9
39 38 37 37 36 36 36 35 35 34 33 32 32 31 30 29 28 26 25 25 25 26 25 23 22 20 18 17 15 14 14 13 12 11 10 9 8 7
38 37 36 35 34 34 33 33 33 32 31 30 29 28 27 26 25 24 24 24 24 23 22 21 20 18 16 15 13 12 11 10 9 8 7 7 7 6
35 35 34 33 32 31 30 30 29 28 28 27 26 26 25 24 23 23 23 22 22 21 20 19 18 16 15 13 11 9 9 8 7 6 6 6 6 6
33 32 31 30 29 29 28 28 26 26 26 25 25 25 23 22 22 22 21 21 21 20 19 18 15 13 11 10 8 7 7 6 6 5 5 5 5 5
30 29 29 28 27 27 26 25 25 24 24 24 24 23 22 20 20 20 20 19 19 19 17 15 12 10 9 7 6 5 6 5 5 5 5 5 5 5
28 28 27 26 25 25 25 24 23 22 22 22 22 22 20 19 19 19 19 18 17 16 14 12 10 8 7 6 5 4 4 4 4 5 5 6 6 6
27 26 25 24 24 24 23 23 22 22 22 22 22 21 19 18 18 17 16 15 14 12 11 9 7 6 5 4 3 3 3 4 5 5 6 7 7 7
26 25 24 24 23 23 23 22 22 22 22 22 21 19 18 17 16 15 14 12 11 9 8 6 5 4 3 2 3 4 5 6 6 7 7 8 8 9
Wind_Direction
295 296 298 299 300 301 303 303 304 304 304 303 304 305 305 304 305 305 306 306 307 308 308 307 308 308 307 306 306 306 304 303 302 301 298 293 289 286
295 296 297 298 300 302 303 304 304 304 305 305 305 305 305 304 305 306 306 307 308 308 308 308 309 310 309 308 308 307 306 305 303 301 298 296 292 288
294 295 297 299 301 302 303 303 304 304 305 306 306 306 305 305 306 307 307 307 308 309 309 309 310 311 312 310 309 308 307 305 304 302 299 298 294 290
294 295 297 299 301 302 302 303 303 303 304 306 306 306 306 306 307 307 307 308 308 309 309 310 311 312 313 312 310 309 308 306 305 304 302 300 295 291
295 296 298 300 301 302 302 302 302 303 304 306 307 307 306 307 307 307 307 307 308 308 310 310 311 312 313 312 310 309 309 308 307 306 304 301 297 293
296 298 299 301 301 302 302 302 302 303 304 305 307 306 306 307 307 307 307 307 309 309 310 310 311 312 313 312 310 310 310 310 309 308 305 302 299 293
297 298 300 301 302 302 301 301 302 303 304 305 306 305 306 307 306 307 308 308 310 310 310 311 313 314 314 312 311 310 311 310 310 309 306 304 301 296
298 299 300 301 302 302 301 302 302 303 304 305 306 306 306 307 308 308 308 308 309 310 311 312 312 313 314 314 313 311 310 310 309 307 306 306 303 298
297 299 300 301 301 301 301 302 303 305 305 306 308 308 308 308 308 308 308 309 310 310 310 311 311 312 313 312 311 310 310 310 310 309 308 309 307 303
296 298 299 300 300 300 301 302 304 305 306 307 308 308 309 309 309 308 308 309 311 311 310 311 311 312 312 311 310 310 310 310 309 308 308 310 311 308
295 297 298 299 299 299 300 302 303 304 306 307 308 309 309 309 309 309 309 310 311 312 311 311 312 312 313 312 310 310 310 309 308 308 309 310 311 311
294 296 297 298 298 300 300 302 303 304 305 306 308 309 309 308 308 309 310 312 314 314 312 313 313 313 314 314 314 314 314 312 311 311 312 311 310 310
293 295 296 296 298 299 301 302 303 304 305 307 309 309 308 308 309 310 311 313 315 316 315 314 314 315 315 314 314 315 317 316 315 315 316 316 315 314
291 293 294 295 297 299 300 302 303 304 306 308 309 310 309 309 309 310 311 313 314 316 316 316 315 315 315 316 315 316 316 317 316 317 318 319 320 321
291 292 292 293 296 298 299 301 302 303 306 308 310 310 311 310 310 311 312 314 315 317 317 316 315 315 316 317 318 318 319 321 320 322 323 324 326 328
290 291 291 292 295 297 298 299 300 303 305 307 309 311 312 312 312 312 313 314 316 318 318 317 318 317 318 318 320 320 320 323 326 331 338 343 345 349
289 289 290 291 294 296 297 299 300 302 304 307 309 312 312 312 313 314 314 315 317 319 319 320 322 321 321 321 321 322 327 333 338 348 358 3 6 11
288 287 288 290 291 293 295 297 300 302 305 308 310 312 312 312 314 315 316 317 318 320 320 320 320 319 321 324 324 326 331 337 345 357 7 14 20 29
287 287 287 288 290 292 294 297 299 302 304 306 310 312 311 312 315 317 318 317 318 320 320 320 320 321 323 327 332 339 347 351 360 13 24 34 43 43
286 286 287 287 289 291 294 296 299 301 303 307 310 312 312 313 314 317 318 319 319 321 321 322 323 325 329 333 342 354 1 8 23 39 47 55 58 52
282 284 286 286 287 290 293 295 297 300 303 307 310 312 312 314 316 317 317 317 319 321 323 325 326 329 333 336 348 4 9 22 42 54 59 63 66 62
280 281 283 284 287 290 291 293 295 298 302 306 309 310 310 312 315 317 317 319 322 324 327 328 327 327 331 344 7 31 50 63 65 66 70 71 78 82
278 278 279 282 285 288 289 291 294 297 300 304 308 308 308 310 312 314 319 322 326 329 331 333 336 343 360 33 65 78 85 87 85 83 84 85 88 89
Height
5721 5717 5713 5708 5704 5699 5693 5688 5683 5679 5676 5669 5662 5655 5648 5642 5637 5631 5626 5620 5614 5608 5602 5596 5590 5584 5577 5572 5567 5561 5556 5551 5547 5542 5538 5535 5532 5530
5710 5706 5702 5698 5693 5688 5683 5677 5670 5665 5662 5657 5650 5643 5637 5631 5625 5620 5615 5609 5603 5597 5591 5585 5579 5573 5567 5561 5555 5550 5545 5541 5536 5532 5528 5525 5522 5520
5700 5696 5692 5687 5683 5677 5671 5665 5659 5653 5649 5645 5638 5632 5626 5621 5615 5610 5604 5599 5593 5587 5581 5575 5569 5563 5557 5551 5545 5540 5536 5531 5527 5523 5519 5516 5513 5511
5690 5686 5681 5677 5672 5666 5660 5654 5648 5642 5637 5633 5628 5622 5616 5610 5605 5600 5594 5588 5583 5577 5571 5565 5559 5553 5547 5541 5536 5531 5527 5523 5518 5514 5511 5508 5505 5502
5679 5675 5670 5665 5660 5654 5648 5643 5637 5631 5626 5621 5617 5611 5606 5600 5595 5589 5584 5578 5573 5567 5562 5556 5550 5544 5538 5533 5528 5523 5519 5515 5511 5506 5503 5499 5497 5495
5668 5664 5659 5654 5648 5643 5637 5632 5626 5621 5616 5610 5606 5601 5596 5590 5584 5579 5575 5569 5563 5557 5552 5547 5541 5535 5530 5525 5520 5516 5511 5507 5503 5499 5495 5492 5489 5487
5657 5652 5647 5642 5636 5631 5626 5621 5616 5611 5605 5600 5595 5590 5585 5580 5574 5569 5565 5560 5555 5548 5543 5538 5533 5528 5522 5517 5512 5508 5504 5500 5496 5492 5489 5486 5483 5481
5646 5641 5636 5631 5626 5621 5615 5611 5605 5600 5595 5590 5585 5580 5575 5569 5564 5559 5554 5550 5546 5541 5535 5530 5525 5520 5515 5510 5506 5501 5497 5494 5490 5486 5483 5481 5478 5476
5635 5631 5626 5621 5616 5611 5606 5601 5596 5590 5584 5580 5575 5570 5565 5560 5555 5550 5545 5540 5535 5531 5526 5522 5517 5512 5508 5503 5499 5495 5491 5488 5484 5481 5478 5476 5474 5472
5624 5620 5615 5611 5605 5601 5597 5592 5587 5581 5576 5571 5566 5560 5555 5550 5545 5540 5535 5531 5526 5521 5516 5514 5510 5505 5501 5497 5493 5489 5486 5483 5479 5477 5474 5472 5470 5468
5613 5609 5604 5600 5596 5591 5587 5583 5579 5573 5567 5562 5557 5551 5546 5541 5536 5531 5527 5523 5519 5515 5509 5506 5503 5499 5495 5491 5487 5484 5481 5478 5475 5473 5470 5468 5466 5464
5603 5599 5594 5590 5585 5581 5578 5574 5570 5565 5559 5554 5549 5543 5538 5533 5528 5523 5519 5515 5511 5508 5503 5499 5496 5493 5491 5487 5483 5480 5477 5474 5471 5469 5467 5464 5462 5461
5593 5589 5584 5580 5576 5572 5568 5564 5560 5555 5551 5546 5541 5535 5530 5525 5521 5516 5512 5508 5504 5501 5497 5494 5491 5487 5484 5482 5480 5477 5473 5470 5468 5466 5464 5461 5459 5458
5582 5578 5575 5571 5567 5564 5560 5556 5551 5547 5543 5538 5533 5528 5523 5519 5514 5510 5506 5503 5499 5496 5492 5488 5486 5483 5480 5478 5475 5473 5470 5468 5465 5463 5461 5459 5457 5455
5571 5568 5565 5562 5559 5555 5551 5548 5544 5540 5535 5531 5526 5521 5516 5512 5508 5505 5501 5498 5495 5491 5487 5484 5481 5479 5476 5474 5472 5470 5468 5466 5463 5461 5459 5457 5455 5454
5562 5559 5556 5553 5550 5547 5543 5540 5536 5532 5528 5524 5520 5515 5511 5507 5503 5500 5497 5494 5491 5488 5484 5480 5477 5475 5472 5470 5468 5466 5465 5463 5461 5459 5457 5456 5455 5453
5553 5550 5548 5545 5542 5539 5536 5533 5529 5525 5522 5518 5514 5510 5506 5502 5499 5495 5493 5490 5487 5484 5481 5478 5474 5472 5469 5467 5466 5464 5462 5461 5460 5458 5457 5456 5455 5454
5543 5541 5539 5537 5535 5532 5529 5526 5523 5519 5516 5513 5509 5505 5502 5498 5495 5492 5489 5486 5484 5481 5478 5475 5472 5469 5468 5466 5464 5462 5461 5460 5459 5458 5457 5456 5455 5454
5535 5533 5531 5529 5527 5525 5522 5520 5517 5514 5511 5507 5504 5501 5497 5494 5491 5488 5485 5482 5480 5477 5474 5471 5469 5467 5465 5464 5463 5462 5460 5459 5459 5458 5457 5457 5456 5456
5526 5525 5523 5522 5520 5518 5516 5514 5511 5508 5505 5503 5499 5496 5493 5490 5487 5485 5482 5479 5476 5474 5471 5469 5467 5465 5464 5463 5462 5462 5460 5460 5459 5459 5458 5458 5458 5457
5518 5517 5516 5515 5513 5512 5510 5508 5506 5503 5501 5498 5495 5492 5489 5487 5484 5481 5478 5476 5473 5471 5469 5467 5465 5464 5463 5462 5462 5462 5461 5460 5460 5460 5460 5460 5460 5459
5511 5510 5509 5508 5507 5506 5504 5502 5501 5499 5496 5494 5491 5488 5486 5483 5481 5478 5475 5473 5471 5469 5467 5466 5464 5463 5462 5462 5462 5462 5461 5461 5461 5461 5461 5462 5462 5462
5504 5503 5503 5502 5501 5500 5499 5497 5496 5494 5492 5489 5487 5485 5482 5480 5478 5475 5473 5471 5469 5468 5466 5465 5464 5463 5462 5462 5462 5462 5462 5463 5463 5463 5463 5463 5464 5464